SKW413 KOAK-KSAN

Flight info

Callsign SKW413
Flight time N/A
Altitude 35000
Route CNDEL5 YYUNG DCT LAX COMIX2
Aircraft E170/M-SDE3GILORVW/S

Departure

Time 2026-05-04 23:53
Airport San Francisco Bay Oakland International Airport (KOAK)

Arrival

Time N/A
Airport San Diego International Airport (KSAN)
Time Latitude Longitude Altitude Speed Heading
2026-05-04 23:17 37.71045 -122.21559 14 ft 0 kts 300°
2026-05-04 23:43 37.71036 -122.21539 16 ft 4 kts 300°
2026-05-04 23:43 37.71022 -122.21510 14 ft 4 kts 307°
2026-05-04 23:44 37.71006 -122.21483 14 ft 4 kts 292°
2026-05-04 23:44 37.71012 -122.21467 16 ft 4 kts 217°
2026-05-04 23:44 37.71026 -122.21454 15 ft 0 kts 217°
2026-05-04 23:49 37.71011 -122.21467 16 ft 6 kts 216°
2026-05-04 23:50 37.70968 -122.21507 15 ft 10 kts 216°
2026-05-04 23:50 37.70902 -122.21570 17 ft 13 kts 218°
2026-05-04 23:50 37.70830 -122.21643 19 ft 13 kts 220°
2026-05-04 23:50 37.70756 -122.21722 20 ft 15 kts 221°
2026-05-04 23:51 37.70663 -122.21776 19 ft 16 kts 169°
2026-05-04 23:51 37.70571 -122.21681 18 ft 19 kts 130°
2026-05-04 23:51 37.70481 -122.21547 17 ft 22 kts 129°
2026-05-04 23:51 37.70373 -122.21408 15 ft 23 kts 151°
2026-05-04 23:52 37.70255 -122.21362 16 ft 16 kts 179°
2026-05-04 23:52 37.70182 -122.21421 16 ft 11 kts 242°
2026-05-04 23:52 37.70186 -122.21485 15 ft 1 kts 305°
2026-05-04 23:52 37.70188 -122.21488 15 ft 1 kts 306°
2026-05-04 23:53 37.70226 -122.21548 14 ft 24 kts 309°
2026-05-04 23:53 37.70506 -122.21976 17 ft 104 kts 310°
2026-05-04 23:53 37.71126 -122.22893 220 ft 154 kts 309°
2026-05-04 23:53 37.71834 -122.23718 1401 ft 144 kts 321°
2026-05-04 23:54 37.72743 -122.24575 1948 ft 180 kts 322°
2026-05-04 23:54 37.73787 -122.25481 2819 ft 188 kts 326°
2026-05-04 23:54 37.74766 -122.26727 3269 ft 211 kts 296°
2026-05-04 23:54 37.75406 -122.28452 3890 ft 228 kts 294°
2026-05-04 23:55 37.76190 -122.30301 4494 ft 246 kts 301°
2026-05-04 23:55 37.77172 -122.32152 5108 ft 261 kts 293°
2026-05-04 23:55 37.76774 -122.36647 6331 ft 277 kts 231°
2026-05-04 23:56 37.75270 -122.38138 6979 ft 279 kts 201°
2026-05-04 23:56 37.73373 -122.38626 7670 ft 280 kts 185°
2026-05-04 23:56 37.71459 -122.38857 8398 ft 281 kts 185°
2026-05-04 23:56 37.69508 -122.39140 9094 ft 285 kts 187°
2026-05-04 23:57 37.67535 -122.39557 9768 ft 290 kts 191°
2026-05-04 23:57 37.65528 -122.40094 10224 ft 302 kts 192°
2026-05-04 23:57 37.63438 -122.40754 10577 ft 317 kts 197°
2026-05-04 23:57 37.61317 -122.41685 10967 ft 329 kts 199°
2026-05-04 23:58 37.59138 -122.42692 11430 ft 338 kts 200°
2026-05-04 23:58 37.56913 -122.43738 11948 ft 345 kts 200°
2026-05-04 23:58 37.54645 -122.44803 12580 ft 349 kts 200°
2026-05-04 23:58 37.52346 -122.45836 13208 ft 352 kts 195°
2026-05-04 23:59 37.49904 -122.46059 13813 ft 355 kts 174°
2026-05-04 23:59 37.47489 -122.45607 14433 ft 357 kts 168°
2026-05-04 23:59 37.45058 -122.44947 15109 ft 358 kts 165°
2026-05-04 23:59 37.42610 -122.44337 15791 ft 361 kts 174°
2026-05-05 00:00 37.40108 -122.44737 16427 ft 368 kts 198°
2026-05-05 00:00 37.39303 -122.45141 16659 ft 369 kts 203°
2026-05-05 00:00 37.35468 -122.47494 17915 ft 370 kts 204°
2026-05-05 00:00 37.33102 -122.48783 18634 ft 372 kts 200°
2026-05-05 00:01 37.30658 -122.49876 19289 ft 374 kts 195°
2026-05-05 00:01 37.28150 -122.50820 19957 ft 378 kts 193°
2026-05-05 00:01 37.25588 -122.51685 20508 ft 384 kts 190°
2026-05-05 00:01 37.22942 -122.52273 21087 ft 388 kts 186°
2026-05-05 00:02 37.20291 -122.52793 21646 ft 394 kts 185°
2026-05-05 00:02 37.17561 -122.53300 22236 ft 398 kts 185°
2026-05-05 00:02 37.14807 -122.53807 22801 ft 403 kts 184°
2026-05-05 00:02 37.12019 -122.54320 23390 ft 407 kts 184°
2026-05-05 00:03 37.09204 -122.54839 23937 ft 411 kts 184°
2026-05-05 00:03 37.06366 -122.55361 24498 ft 414 kts 184°
2026-05-05 00:03 37.03503 -122.55791 25049 ft 413 kts 175°
2026-05-05 00:03 37.00681 -122.55369 25601 ft 407 kts 161°
2026-05-05 00:04 36.97999 -122.54286 26110 ft 403 kts 150°
2026-05-05 00:04 36.95557 -122.52619 26605 ft 398 kts 140°
2026-05-05 00:04 36.93435 -122.50498 27061 ft 395 kts 132°
2026-05-05 00:04 36.91412 -122.48156 27521 ft 397 kts 130°
2026-05-05 00:05 36.89420 -122.45755 27964 ft 400 kts 130°
2026-05-05 00:05 36.87424 -122.43319 28408 ft 402 kts 129°
2026-05-05 00:05 36.85402 -122.40882 28834 ft 407 kts 132°
2026-05-05 00:05 36.83225 -122.38581 29245 ft 412 kts 134°
2026-05-05 00:06 36.81012 -122.36292 29660 ft 415 kts 135°
2026-05-05 00:06 36.78762 -122.33991 29867 ft 423 kts 135°
2026-05-05 00:06 36.76470 -122.31653 30222 ft 427 kts 136°
2026-05-05 00:06 36.74172 -122.29309 30630 ft 428 kts 136°
2026-05-05 00:07 36.71895 -122.26988 31022 ft 429 kts 137°
2026-05-05 00:07 36.69585 -122.24637 31412 ft 429 kts 138°
2026-05-05 00:07 36.67269 -122.22280 31792 ft 430 kts 138°
2026-05-05 00:07 36.64949 -122.19921 32176 ft 431 kts 139°
2026-05-05 00:08 36.62625 -122.17559 32550 ft 431 kts 139°
2026-05-05 00:08 36.60299 -122.15198 32894 ft 433 kts 140°
2026-05-05 00:08 36.57962 -122.12826 33221 ft 434 kts 140°
2026-05-05 00:08 36.55622 -122.10452 33578 ft 434 kts 141°
2026-05-05 00:09 36.53282 -122.08082 33918 ft 434 kts 141°
2026-05-05 00:09 36.50938 -122.05709 34196 ft 435 kts 142°
2026-05-05 00:09 36.48624 -122.03370 34464 ft 435 kts 142°
2026-05-05 00:09 36.46276 -122.00998 34725 ft 434 kts 142°
2026-05-05 00:10 36.43944 -121.98642 34928 ft 426 kts 142°
2026-05-05 00:10 36.41696 -121.96372 34986 ft 412 kts 142°
2026-05-05 00:10 36.39454 -121.94114 35041 ft 419 kts 142°
2026-05-05 00:11 36.34848 -121.89473 35099 ft 434 kts 142°
2026-05-05 00:11 36.30099 -121.84697 35094 ft 439 kts 143°
2026-05-05 00:12 36.25404 -121.79985 35074 ft 437 kts 143°
2026-05-05 00:12 36.20674 -121.75243 35083 ft 437 kts 143°
2026-05-05 00:13 36.15942 -121.70508 35074 ft 437 kts 143°
2026-05-05 00:13 36.11206 -121.65776 35076 ft 437 kts 143°
2026-05-05 00:14 36.06473 -121.61054 35068 ft 437 kts 144°
2026-05-05 00:14 36.01769 -121.56370 35076 ft 437 kts 144°
2026-05-05 00:15 35.97035 -121.51662 35057 ft 437 kts 144°
2026-05-05 00:15 35.92300 -121.46962 35061 ft 437 kts 144°
2026-05-05 00:16 35.87566 -121.42269 35062 ft 436 kts 145°
2026-05-05 00:16 35.82832 -121.37585 35061 ft 436 kts 145°
2026-05-05 00:17 35.78129 -121.32938 35068 ft 436 kts 145°